KC1UIX-13 Weather Reports


Display with metric or nautical units.
time (UTC)temp
F
wind
direction
speed
MPH
gust
MPH
rain 1hr
in
rain 24hr
in
rain mn
in
humidity
%
barometer
mb
20260503005018 46 331 0.0 2.0 0.00 0.15 0.15 99 1010.9
20260503004018 46 339 1.0 2.0 0.01 0.15 0.15 98 1011.0
20260503003018 47 330 0.0 2.0 0.03 0.15 0.15 98 1011.0
20260503002018 47 339 0.0 2.0 0.03 0.15 0.15 97 1010.9
20260503001018 47 317 0.0 1.0 0.03 0.15 0.15 97 1010.9
20260503000018 47 323 0.0 2.0 0.03 0.15 0.15 96 1010.9
20260502235019 48 334 0.0 2.0 0.03 0.15 0.15 95 1010.9
20260502234039 48 328 0.0 1.0 0.01 0.13 0.13 93 1010.9
20260502233019 48 315 0.0 1.0 0.00 0.12 0.12 92 1010.9
20260502232019 49 20 0.0 2.0 0.00 0.12 0.12 92 1010.8
20260502231016 49 1 0.0 2.0 0.00 0.12 0.12 91 1010.8
20260502230020 49 4 1.0 3.0 0.00 0.12 0.12 91 1010.7
20260502225020 49 10 2.0 4.0 0.00 0.12 0.12 90 1010.6
20260502224020 49 2 1.0 4.0 0.00 0.12 0.12 89 1010.6
20260502223020 49 5 1.0 4.0 0.00 0.12 0.12 89 1010.6
20260502222017 49 358 1.0 4.0 0.00 0.12 0.12 89 1010.6
20260502221017 49 341 2.0 5.0 0.00 0.12 0.12 89 1010.7
20260502220038 50 330 2.0 6.0 0.00 0.12 0.12 87 1010.8
20260502215017 50 319 1.0 3.0 0.00 0.12 0.12 84 1010.8
20260502214018 50 247 0.0 2.0 0.00 0.12 0.12 85 1010.9
20260502213018 50 289 0.0 2.0 0.00 0.12 0.12 85 1010.9
20260502212038 49 251 0.0 1.0 0.00 0.12 0.12 85 1010.9
20260502211018 49 352 0.0 1.0 0.00 0.12 0.12 86 1011.0
20260502210018 49 313 2.0 4.0 0.00 0.12 0.12 86 1011.0
20260502205019 50 296 1.0 4.0 0.00 0.12 0.12 84 1011.0
20260502204019 50 262 1.0 2.0 0.00 0.12 0.12 82 1010.8
20260502203019 50 265 1.0 3.0 0.00 0.12 0.12 82 1010.7
20260502202019 50 242 1.0 2.0 0.00 0.12 0.12 86 1010.7
20260502201019 49 282 0.0 1.0 0.00 0.12 0.12 89 1010.8
20260502200019 49 290 0.0 2.0 0.00 0.12 0.12 90 1010.9
20260502195039 49 254 0.0 2.0 0.00 0.12 0.12 90 1011.1
20260502194019 49 335 0.0 2.0 0.00 0.12 0.12 90 1011.1
20260502193017 49 262 0.0 2.0 0.00 0.12 0.12 90 1011.1
20260502192017 49 229 0.0 3.0 0.00 0.12 0.12 90 1011.2
20260502191020 49 320 0.0 2.0 0.00 0.12 0.12 92 1011.3
20260502190040 48 214 2.0 4.0 0.00 0.12 0.12 93 1011.5
20260502185018 48 240 1.0 3.0 0.00 0.12 0.12 94 1011.6
20260502184018 48 219 1.0 5.0 0.00 0.12 0.12 93 1011.7
20260502183018 49 220 1.0 4.0 0.00 0.12 0.12 93 1011.7
20260502182018 49 239 1.0 3.0 0.00 0.13 0.12 92 1011.7
20260502181018 49 246 1.0 4.0 0.00 0.13 0.12 94 1011.7
20260502164016 50 255 1.0 5.0 0.00 0.13 0.12 92 1011.8
20260502163020 50 276 1.0 4.0 0.00 0.13 0.12 91 1012.0
20260502162020 51 289 1.0 5.0 0.00 0.13 0.12 89 1012.0
20260502161020 51 217 1.0 4.0 0.00 0.13 0.12 87 1011.9
20260502152018 51 291 1.0 4.0 0.00 0.13 0.12 91 1012.3
20260502151019 51 251 1.0 3.0 0.00 0.13 0.12 93 1012.4
20260502123018 47 228 1.0 2.0 0.00 0.01 0.00 92 1012.6
20260502122017 46 236 0.0 1.0 0.00 0.01 0.00 92 1012.4
20260502121018 46 217 0.0 2.0 0.00 0.01 0.00 92 1012.2
20260502115019 46 51 0.0 2.0 0.00 0.01 0.00 92 1012.1
20260502114019 46 44 0.0 1.0 0.00 0.01 0.00 91 1012.3
20260502113019 47 265 0.0 2.0 0.00 0.01 0.00 88 1012.6
20260502112019 47 12 0.0 2.0 0.00 0.01 0.00 85 1012.8
20260502111059 47 323 1.0 3.0 0.00 0.01 0.00 82 1012.6
20260502110039 47 332 1.0 3.0 0.00 0.01 0.00 81 1012.4
20260502105019 47 337 1.0 3.0 0.00 0.01 0.00 81 1012.3
20260502104020 47 338 1.0 3.0 0.00 0.01 0.00 81 1012.3
20260502103020 47 321 1.0 3.0 0.00 0.01 0.00 81 1012.4
20260502102017 47 291 0.0 2.0 0.00 0.01 0.00 80 1012.2
20260502101017 47 333 1.0 2.0 0.00 0.01 0.00 80 1012.1
20260502091018 43 23 0.0 2.0 0.00 0.01 0.00 81 1011.8
20260502071017 40 346 0.0 1.0 0.00 0.01 0.00 85 1012.6
20260502070017 40 356 0.0 2.0 0.00 0.01 0.00 85 1012.6
20260502065017 40 229 0.0 3.0 0.00 0.01 0.00 86 1012.6
20260502064040 39 230 0.0 1.0 0.00 0.01 0.00 86 1012.6
20260502063059 39 219 1.0 2.0 0.00 0.01 0.00 88 1012.4
20260502062018 39 282 0.0 1.0 0.00 0.01 0.00 87 1012.2
20260502061017 38 326 0.0 1.0 0.00 0.01 0.00 88 1012.1
20260502060018 39 0 0.0 1.0 0.00 0.01 0.00 87 1011.9
20260502055018 39 332 0.0 1.0 0.00 0.01 0.00 87 1011.9
20260502054018 38 305 0.0 2.0 0.00 0.01 0.00 86 1012.0
20260502053019 38 340 0.0 1.0 0.00 0.01 0.00 86 1012.0
20260502052019 37 22 0.0 1.0 0.00 0.01 0.00 88 1011.9
20260502051039 37 11 0.0 2.0 0.00 0.01 0.00 89 1011.8
20260502050039 37 2 0.0 2.0 0.00 0.01 0.00 88 1011.7
20260502045019 37 277 0.0 2.0 0.00 0.01 0.00 88 1011.7
20260502044039 37 317 0.0 2.0 0.00 0.01 0.00 89 1011.6
20260502043016 37 352 0.0 1.0 0.00 0.01 0.00 89 1011.6
20260502042040 38 347 0.0 1.0 0.00 0.01 0.00 89 1011.5
20260502041100 38 10 0.0 1.0 0.00 0.01 0.00 88 1011.5
20260502040019 38 300 0.0 1.0 0.00 0.01 0.00 87 1011.5
20260502035020 39 13 0.0 2.0 0.00 0.01 0.01 86 1011.4
20260502034017 39 17 0.0 2.0 0.00 0.01 0.01 85 1011.4
20260502033017 39 5 0.0 1.0 0.00 0.01 0.01 84 1011.4
20260502032017 39 8 0.0 2.0 0.00 0.01 0.01 84 1011.4
20260502031018 39 352 0.0 1.0 0.00 0.01 0.01 84 1011.4
20260502030018 40 300 0.0 1.0 0.00 0.01 0.01 81 1011.3
20260502025059 40 342 0.0 1.0 0.00 0.01 0.01 80 1011.3
20260502024018 40 338 0.0 1.0 0.00 0.01 0.01 80 1011.3
20260502023018 41 311 0.0 2.0 0.00 0.01 0.01 79 1011.3
20260502022039 41 329 0.0 2.0 0.00 0.01 0.01 78 1011.3
20260502021018 42 344 0.0 2.0 0.00 0.01 0.01 79 1011.4
20260502020019 43 340 1.0 2.0 0.00 0.01 0.01 77 1011.5
20260502015019 43 164 0.0 2.0 0.00 0.01 0.01 77 1011.5
20260502014100 44 241 0.0 1.0 0.00 0.01 0.01 76 1011.4
20260502013039 45 7 0.0 1.0 0.00 0.01 0.01 76 1011.4
20260502012019 45 228 0.0 1.0 0.00 0.01 0.01 70 1011.3
20260502011016 46 42 0.0 2.0 0.00 0.01 0.01 70 1011.2
20260502010016 47 45 0.0 1.0 0.00 0.01 0.01 70 1011.1